Regional Weather Roundup
Issued by NWS

Home | Current Version | Previous Version | Text Only | Print | Product List | Glossary Off
Versions: 1 2 3 4 5 6 7 8 9 10 11 12 13 14 15 16 17 18 19 20 21 22 23 24 25 26 27 28 29 30 31 32 33 34 35 36 37 38 39 40 41 42 43 44 45 46 47 48 49 50

000
ASUS43 KDMX 120307
RWRIA

WEATHER ROUNDUP FOR IOWA
NATIONAL WEATHER SERVICE DES MOINES IA
1000 PM CDT FRI JUL 11 2014

NOTE: "FAIR" INDICATES FEW OR NO CLOUDS BELOW 12,000 FEET WITH NO
SIGNIFICANT WEATHER AND/OR OBSTRUCTIONS TO VISIBILITY.

* - THESE STATIONS ARE NOT NWS STATIONS...THUS NOT UNDER NWS
QUALITY CONTROL.  THEY ALSO DO NOT REPORT WEATHER SUCH
AS PRECIPITATION OR FOG.

IAZ001>003-012>014-020>022-031>034-043>046-120400-
   NORTHWEST IOWA

CITY           SKY/WX    TMP DP  RH WIND       PRES   REMARKS
CARROLL *      CLEAR     72  70  94 S5        30.03R
CHEROKEE *     CLOUDY    72  72 100 CALM      30.04R
DENISON *      CLEAR     72  72 100 CALM      30.01R
LE MARS *      MOCLDY    73  72  94 CALM      30.03S FOG
ORANGE CITY *  CLEAR     73  70  88 S3        30.04R FOG
SHELDON *      CLEAR     73  72  94 S8        30.02R
SIOUX CITY     CLOUDY    74  71  91 E5        30.02R
SPENCER        PTCLDY    72  69  90 S6        30.03R
STORM LAKE *   CLEAR     72  72 100 CALM      30.06R FOG
$$

IAZ055>058-069>071-079>083-090>094-120400-
   SOUTHWEST IOWA

CITY           SKY/WX    TMP DP  RH WIND       PRES   REMARKS
ATLANTIC *     CLEAR     75  73  94 E3        30.01R
AUDUBON *      CLEAR     73  72  94 CALM      30.04R
CLARINDA *     CLEAR     77  48  36 E3        30.02R
COUNCIL BLFS * CLEAR     77  77 100 E7        30.00R
CRESTON *      CLEAR     75  73  94 E7        30.04R
HARLAN  *      CLEAR     73  73 100 E3        30.05R
LAMONI         CLEAR     77  73  87 E3        30.03R
RED OAK *      CLOUDY    77  75  94 E6        30.01R
SHENANDOAH *   CLEAR     79  75  89 E5        30.00R HX  82
$$

IAZ047>049-059>061-072>074-084-120400-
   CENTRAL IOWA

CITY           SKY/WX    TMP DP  RH WIND       PRES   REMARKS
AMES           CLOUDY    71  70  96 CALM      30.03R
ANKENY *       CLEAR     72  70  94 CALM      30.03R
CHARITON *     PTCLDY    73  72  94 E3        30.04R
DES MOINES     MOCLDY    76  72  87 E3        30.02R
GRINNELL*      CLOUDY    72  70  94 E5        30.05R
KNOXVILLE *    CLOUDY    75  72  88 SE6       30.02R
MARSHALLTOWN   CLOUDY    72  70  93 E6        30.04R
PELLA *        CLOUDY    73  72  94 E5        30.04R
PERRY *          N/A     72  70  94 SE3       30.02S FOG
$$

IAZ004>006-015-016-023>025-035-036-120400-
   NORTH CENTRAL IOWA

CITY           SKY/WX    TMP DP  RH WIND       PRES   REMARKS
ALGONA *       MOCLDY    72  70  94 S8        30.03S
CLARION *      CLEAR     68  68 100 SE6       30.04R
ESTHERVILLE    CLEAR     71  68  90 SW3       30.02R
FORT DODGE *   MOCLDY    72  66  83 E3        30.04R
MASON CITY     PTCLDY    70  67  90 S6        30.05R
FOREST CITY *  CLEAR     70  68  94 S6        30.04R
IOWA FALLS *   CLOUDY    72  68  88 CALM      30.06R
$$

IAZ007>011-017>019-026>030-037>042-050>054-066-120400-
   NORTHEAST IOWA

CITY           SKY/WX    TMP DP  RH WIND       PRES   REMARKS
CEDAR RAPIDS   PTCLDY    71  67  87 SE7       30.04S
CHARLES CITY * CLOUDY    72  68  88 W3        30.06R
CLINTON *      MOCLDY    72  66  83 E6        30.11R
DECORAH *        N/A    N/A N/A N/A MISG        N/A
DUBUQUE        CLOUDY    71  67  87 S7        30.08S
MONTICELLO *   CLOUDY    73  68  83 SE6       30.07R
OELWEIN *      CLOUDY    73  73 100 S7        30.06R
WATERLOO       CLOUDY    74  68  81 S7        30.03R
$$

IAZ064-065-067-068-078-120400-
   EAST CENTRAL IOWA

CITY           SKY/WX    TMP DP  RH WIND       PRES   REMARKS
DAVENPORT      MOCLDY    74  66  76 SE7       30.08R
IOWA CITY      MOCLDY    74  69  85 SE7       30.06S
MT. PLEASANT * MOCLDY    73  72  94 E3        30.05R
MUSCATINE *    CLOUDY    75  68  78 SE8       30.06R
QUAD CITIES    MOCLDY    73  67  81 E6        30.07R
$$

IAZ062-063-075>077-085>089-095>099-120400-
   SOUTHEAST IOWA

CITY           SKY/WX    TMP DP  RH WIND       PRES   REMARKS
BURLINGTON     MOCLDY    76  70  82 SE5       30.05R
FAIRFIELD *    CLOUDY    73  70  88 E5        30.05R
FORT MADISON * PTCLDY    75  72  88 CALM      30.06R
KEOKUK *       MOCLDY    77  73  88 NE5       30.04R
OSKALOOSA *      N/A     73  72  94 E6        30.04S
CENTERVILLE *  CLEAR     73  73 100 CALM      30.06R
OTTUMWA        MOCLDY    73  71  93 E5        30.03R
WASHINGTON *   PTCLDY    73  72  94 E5        30.06R
$$

ABBREVIATIONS USED IN REMARKS
   TC - TEMPERATURES IN CELSIUS
  WCI - WIND CHILL INDEX
   HX - HEAT INDEX
  VSB - VISIBILITY
$$



USA.gov is the U.S. government's official web portal to all federal, state and local government web resources and services.